Weather Roundup
Issued by NWS Chicago, IL

Home | Current Version | Previous Version | Text Only | Print | Product List | Glossary Off
Versions: 1 2 3 4 5 6 7 8 9 10 11 12 13 14 15 16 17 18 19 20 21 22 23 24 25 26 27 28 29 30 31 32 33 34 35 36 37 38 39 40 41 42 43 44 45 46 47 48 49 50

000
NZUS59 KLOT 252203
HRRLOT

CHICAGO AREA WEATHER ROUNDUP
NATIONAL WEATHER SERVICE CHICAGO/ROMEOVILLE IL
500 PM CDT SAT MAR 25 2017

NOTE: "FAIR" INDICATES FEW OR NO CLOUDS BELOW 12,000 FEET WITH NO
SIGNIFICANT WEATHER AND/OR OBSTRUCTIONS TO VISIBILITY.

* THESE STATIONS ARE NOT UNDER NWS QUALITY CONTROL. THEY ALSO MAY NOT
  REPORT WEATHER SUCH AS PRECIPITATION OR FOG.

ILZ005-006-012>014-019>023-252300-
NORTHEAST ILLINOIS

CITY           SKY/WX    TMP DP  RH WIND       PRES   REMARKS
OHARE          LGT RAIN  43  40  89 N10       29.99S FOG
MIDWAY         HVY RAIN  46  45  96 NE10      29.99R FOG
AURORA         CLOUDY    46  44  93 NE15      29.97S FOG
LANSING*       LGT RAIN  49  49 100 NW7       29.97S
JOLIET*        DRIZZLE   50  49  97 N7        29.96F
WAUKEGAN       LGT RAIN  40  40 100 NE10      30.02F FOG
DUPAGE AIRPORT LGT RAIN  43  43 100 NE10      29.98S FOG
WHEELING       CLOUDY    41  41 100 N9        30.01F
MORRIS*        CLOUDY    50  49  93 NE6       29.94F FOG
NORTHERLY ISL    N/A     42  41  96 N10         N/A
$$

WIZ051-052-058>065-066-070>072-252300-
SOUTHEAST WISCONSIN

CITY           SKY/WX    TMP DP  RH WIND       PRES   REMARKS
MILWAUKEE      LGT RAIN  39  37  92 NE14      30.07F
KENOSHA*       LGT RAIN  40  38  93 NE14      30.04F FOG
RACINE*        CLOUDY    39  37  92 NE10      30.07F
WAUKESHA       CLOUDY    36  36 100 E16       30.07S
WEST BEND      CLOUDY    37  37 100 E15G21    30.08S
$$

INZ001>003-010>013-019-020-252300-
NORTHWEST INDIANA

CITY           SKY/WX    TMP DP  RH WIND       PRES   REMARKS
GARY*          RAIN      48  48 100 W7        29.98R
MICHIGAN CITY* NOT AVBL
RENSSELAER*    NOT AVBL
VALPARAISO     CLOUDY    61  56  83 SE5       29.97R HAZE
$$

LMZ740>746-252300-
SOUTHERN LAKE MICHIGAN

STATION/POSITION TIME  SKY/WX   TEMP WIND        PRES    VSBY
                                AIR  DIR/SP/G
                 (UTC)          (F)  (DEG/KT/KT) (MB)    (MI)
HARRISON CRIB    2140                340/ 13/ 14   N/A
BURNHAM HARBOR   2200                350/ 11/ 13   N/A
CALUMET HARBOR   2130            43  340/ 11/ 14 1014.5F
BURNS HARBOR     2140            60  110/ 10/ 15 1015.2R
MICHIGAN CITY    2140            59   90/ 14/ 16   N/A
$$

ABBREVIATIONS USED IN REMARKS
   TC - TEMPERATURE IN CELSIUS
  WCI - WIND CHILL INDEX
   HX - HEAT INDEX
  VSB - VISIBILITY
$$




USA.gov is the U.S. government's official web portal to all federal, state and local government web resources and services.